Regional Weather Roundup
Issued by NWS

Home | Current Version | Previous Version | Graphics & Text | Print | Product List | Glossary On
Versions: 1 2 3 4 5 6 7 8 9 10 11 12 13 14 15 16 17 18 19 20 21 22 23 24 25 26 27 28 29 30 31 32 33 34 35 36 37 38 39 40 41 42 43 44 45 46 47 48 49 50
000
ASUS43 KLOT 301521
RWRIL

ILLINOIS REGIONAL WEATHER ROUNDUP
NATIONAL WEATHER SERVICE CHICAGO/ROMEOVILLE IL
1000 AM CDT SAT MAY 30 2015

NOTE: "FAIR" INDICATES FEW OR NO CLOUDS BELOW 12,000 FEET WITH NO
SIGNIFICANT WEATHER AND/OR OBSTRUCTIONS TO VISIBILITY.

* THESE STATIONS ARE NOT UNDER NWS QUALITY CONTROL. THEY ALSO MAY NOT
  REPORT WEATHER SUCH AS PRECIPITATION OR FOG.

ILZ001-002-007-009-015-016-024-301600-
NORTHWEST ILLINOIS

CITY           SKY/WX    TMP DP  RH WIND       PRES   REMARKS
MOLINE         LGT RAIN  68  65  90 CALM      29.97S FOG
STERLING*      CLOUDY    66  63  88 W3        29.99S
SAVANNA*       CLOUDY    70  64  80 SW3       29.97R
$$

ILZ003-004-008-010-011-017-018-301600-
NORTH CENTRAL ILLINOIS

CITY           SKY/WX    TMP DP  RH WIND       PRES   REMARKS
ROCKFORD       LGT RAIN  67  65  93 SW5       29.99S FOG
FREEPORT*      CLOUDY    68  64  88 W3        29.99S
ROCHELLE*      RAIN      66  64  93 SW5       30.00R
DE KALB*       RAIN      65  62  91 SW5       30.00S
PERU*          RAIN      67  64  91 CALM      29.99F
$$

ILZ005-006-012>014-019>023-301600-
NORTHEAST ILLINOIS

CITY           SKY/WX    TMP DP  RH WIND       PRES   REMARKS
CHICAGO-OHARE  LGT RAIN  68  63  84 CALM      29.99R
CHICAGO-MIDWAY CLOUDY    71  65  81 W5        29.99S
AURORA         CLOUDY    69  63  81 SW3       30.00S
LANSING*       CLOUDY    68  65  90 SW3       30.00S
JOLIET*        LGT RAIN  70  66  88 CALM      30.00R
WAUKEGAN       CLOUDY    51  50  96 N15       30.02R
DUPAGE AIRPORT CLOUDY    69  64  84 SW6       29.99R
KANKAKEE*      LGT RAIN  67  65  91 CALM      30.01F
WHEELING       CLOUDY    55  53  93 NE9       30.02R
MORRIS*        DRIZZLE   68  65  90 W5        29.98S
ROMEOVILLE*    CLOUDY    68  64  87 CALM      30.00S
NORTHERLY ISL    N/A     64  61  90 NE2         N/A
$$

LMZ740>746-301600-
SOUTHERN LAKE MICHIGAN

STATION/POSITION SKY/WX   TEMP    WIND        PRES    VSBY  WAVE
                          AIR SEA DIR/SP/G                  HT/PER
                          (F)     (DEG/KT/KT) (MB)    (MI)  (FT/S)
SOUTHERN BUOY              41 38  350/  8/ 10 1016.4R         0
HARRISON CRIB              65      70/  3/  3   N/A
BURNHAM HARBOR             64      10/  4/  5   N/A
CALUMET HARBOR             69     160/  5/  7   N/A
BURNS HARBOR               69     190/  6/  8 1016.6R
MICHIGAN CITY              69     190/  2/  2   N/A
MICHIGAN CITY 6N           63 57  190/  2/  4   N/A           0
ST. JOSEPH                 61 57  260/  6/  6   N/A           1
$$

ILZ025>027-034>036-040-047-049-050-058-095>099-301600-
WEST-CENTRAL ILLINOIS

CITY           SKY/WX    TMP DP  RH WIND       PRES   REMARKS
QUINCY         CLOUDY    68  65  90 NW5       29.98S
GALESBURG*     RAIN      65  64  96 SW3       29.99R
MACOMB*        LGT RAIN  67  66  96 CALM      30.01S
JACKSONVILLE*  LGT RAIN  69  67  93 CALM      29.98F
PITTSFIELD*    RAIN      67  65  93 CALM      29.99S
$$

ILZ028>032-037-038-041>044-048-051>054-059>061-301600-
CENTRAL ILLINOIS

CITY           SKY/WX    TMP DP  RH WIND       PRES   REMARKS
PONTIAC        LGT RAIN  69  67  94 E6        30.00S
BLOOMINGTON    CLOUDY    70  67  90 E6        30.00S
DECATUR        CLOUDY    72  67  84 E9        29.97S
PEORIA         CLOUDY    71  65  81 CALM      29.99R
LACON*         DRIZZLE   66  63  89 CALM      29.98R
LINCOLN*       CLOUDY    72  67  85 CALM      29.96R
SPRINGFIELD    LGT RAIN  70  66  87 CALM      29.98R FOG
TAYLORVILLE    LGT RAIN  70  68  94 CALM      29.98R
$$

ILZ033-039-045-046-055>057-062-063-301600-
EAST-CENTRAL ILLINOIS

CITY           SKY/WX    TMP DP  RH WIND       PRES   REMARKS
CHAMPAIGN      CLOUDY    71  67  87 E12       29.99S
DANVILLE*      CLOUDY    69  67  93 E6        29.98S
RANTOUL*       CLOUDY    73  69  87 E12       29.99F
MATTOON        CLOUDY    73  69  87 S7        29.98S
PARIS*         CLOUDY    79  68  69 S10G16    29.99F HX  82
$$

ILZ079-100>102-301600-
SOUTHWEST ILLINOIS

CITY           SKY/WX    TMP DP  RH WIND       PRES   REMARKS
ALTON          CLOUDY    73  73 100 SE6       29.97S
BELLEVILLE     DRIZZLE   73  73 100 S5        29.95S
CAHOKIA*       CLOUDY    73  67  81 W3        29.96S
SPARTA*        HVY RAIN  72  69  89 S6        29.97S
$$

ILZ064>066-069>071-074>076-080>082-084>086-088>090-092>094-301600-
SOUTH-CENTRAL ILLINOIS

CITY           SKY/WX    TMP DP  RH WIND       PRES   REMARKS
CARBONDALE     PTSUNNY   76  68  76 S14       29.97S
CAIRO*         CLOUDY    76  68  76 S8        29.97F
EFFINGHAM*     CLOUDY    75  68  77 S5        29.99F
MARION         PTSUNNY   75  70  83 S9        29.99S
MT. VERNON     PTSUNNY   77  68  73 S9        29.98F
CENTRALIA*     MOSUNNY   80  69  68 S9        29.97F HX  83
SALEM*         PTSUNNY   78  69  73 S8        29.97F HX  80
METROPOLIS*    PTSUNNY   79  69  72 S10       29.99F HX  81
$$

ILZ067-068-072-073-078-083-087-091-301600-
SOUTHEAST ILLINOIS

CITY           SKY/WX    TMP DP  RH WIND       PRES   REMARKS
LAWRENCEVILLE  CLOUDY    80  68  66 S12       30.00F HX  83
FLORA*         SUNNY     77  69  77 SW13      29.98F
FAIRFIELD*     CLOUDY    78  69  73 S10       29.97F HX  81
HARRISBURG*    PTSUNNY   78  69  74 S13       29.99F
ROBINSON*      CLOUDY    79  67  67 S10       30.00F HX  81
CARMI*         MOSUNNY   81  64  57 S13       29.99S HX  82
$$

ABBREVIATIONS USED IN REMARKS
   TC - TEMPERATURE IN CELSIUS
  WCI - WIND CHILL INDEX
   HX - HEAT INDEX
  VSB - VISIBILITY
$$



USA.gov is the U.S. government's official web portal to all federal, state and local government web resources and services.